Total_Precipitation_Accumulation
1.64 1.71 1.50 1.46 1.32 1.63 2.00 2.21 2.27 2.44 2.54 2.51 2.19 1.96 1.91 1.76 1.59 1.67 1.97 2.19 2.23 2.10 2.15 2.14 1.88 1.75 1.70 1.47 1.26 1.15 1.04 0.96 0.85 0.71 0.65 0.60 0.48 0.31 0.19 0.16 0.17 0.20 0.16
1.79 1.84 1.77 1.67 1.43 1.58 1.91 2.26 2.34 2.58 2.55 2.58 2.10 1.86 1.79 1.81 1.61 1.50 1.62 1.96 1.98 1.89 1.89 2.05 2.10 2.05 1.96 1.75 1.53 1.32 1.15 1.04 0.94 0.77 0.65 0.61 0.53 0.41 0.33 0.25 0.22 0.23 0.19
2.00 2.15 2.06 1.73 1.56 1.73 1.92 1.94 2.06 2.53 2.37 2.32 2.15 2.13 2.06 1.87 1.67 1.56 1.51 1.60 1.59 1.73 1.77 1.81 2.01 2.13 2.20 2.13 1.94 1.68 1.44 1.19 0.97 0.80 0.67 0.58 0.52 0.45 0.42 0.36 0.32 0.31 0.24
1.81 1.97 1.71 1.39 1.55 1.81 1.94 1.85 1.86 2.22 2.26 2.27 2.26 2.18 2.08 1.87 1.64 1.54 1.51 1.40 1.38 1.25 1.43 1.63 1.84 2.00 2.25 2.34 2.37 2.31 2.03 1.56 1.17 0.91 0.73 0.62 0.55 0.45 0.36 0.33 0.33 0.36 0.28
1.15 1.26 1.11 1.05 1.27 1.51 1.51 1.34 1.47 1.74 1.84 1.94 1.89 1.69 1.51 1.32 1.19 1.18 1.15 1.08 1.19 1.22 1.26 1.31 1.58 1.76 2.08 2.49 2.75 2.84 2.61 2.04 1.50 1.18 0.99 0.83 0.75 0.59 0.40 0.33 0.35 0.34 0.29
0.81 0.88 0.88 0.84 0.92 0.95 0.98 1.12 1.29 1.43 1.34 1.40 1.34 1.15 1.11 0.98 0.90 0.87 0.76 0.76 0.85 0.86 0.91 1.10 1.33 1.23 1.57 2.07 2.44 2.68 2.71 2.44 1.90 1.53 1.32 1.18 1.13 0.85 0.54 0.43 0.42 0.35 0.29
0.68 0.69 0.66 0.66 0.72 0.71 0.71 0.85 0.98 0.99 0.83 1.00 1.09 0.90 0.75 0.67 0.64 0.63 0.57 0.56 0.58 0.63 0.79 1.00 1.14 1.12 1.08 1.23 1.49 1.95 2.37 2.52 2.35 1.98 1.63 1.44 1.38 1.12 0.77 0.60 0.51 0.41 0.38
0.57 0.56 0.54 0.51 0.50 0.54 0.56 0.62 0.74 0.75 0.66 0.78 0.88 0.85 0.66 0.59 0.52 0.38 0.40 0.41 0.42 0.54 0.62 0.77 0.98 1.16 1.15 1.28 1.07 1.36 2.01 2.36 2.56 2.51 2.19 1.85 1.61 1.29 0.96 0.81 0.66 0.54 0.48
0.36 0.37 0.34 0.34 0.36 0.40 0.44 0.50 0.59 0.62 0.57 0.55 0.65 0.77 0.62 0.51 0.44 0.39 0.36 0.38 0.46 0.51 0.55 0.71 0.83 1.03 1.20 1.43 1.38 1.24 1.49 1.80 2.36 2.77 2.70 2.19 1.60 1.21 1.02 0.99 0.93 0.72 0.57
0.28 0.26 0.24 0.23 0.24 0.26 0.34 0.36 0.45 0.56 0.56 0.45 0.48 0.56 0.56 0.54 0.48 0.43 0.40 0.37 0.42 0.45 0.51 0.59 0.74 0.93 1.06 1.28 1.36 1.15 1.05 1.26 1.81 2.40 2.66 2.49 1.92 1.38 1.12 1.16 1.32 1.19 0.89
0.30 0.27 0.26 0.24 0.24 0.23 0.26 0.30 0.38 0.47 0.53 0.48 0.44 0.50 0.59 0.58 0.50 0.47 0.42 0.42 0.46 0.39 0.48 0.62 0.73 0.82 0.91 1.13 1.41 1.26 1.15 1.08 1.18 1.49 1.83 2.13 2.19 1.90 1.63 1.59 1.77 1.85 1.64
0.30 0.29 0.28 0.29 0.29 0.28 0.28 0.28 0.29 0.34 0.46 0.54 0.54 0.52 0.57 0.58 0.48 0.44 0.37 0.35 0.42 0.41 0.54 0.72 0.78 0.84 0.90 1.10 1.16 1.14 1.07 0.93 0.83 0.85 1.03 1.27 1.55 1.72 1.69 1.75 2.00 2.20 2.30
0.24 0.26 0.26 0.28 0.30 0.33 0.32 0.30 0.30 0.30 0.37 0.47 0.49 0.53 0.53 0.52 0.56 0.56 0.51 0.43 0.45 0.50 0.65 0.77 0.89 0.95 0.95 1.09 1.10 1.03 0.87 0.72 0.59 0.54 0.61 0.74 0.90 1.16 1.41 1.57 1.79 2.06 2.29
0.24 0.24 0.24 0.24 0.26 0.30 0.34 0.36 0.34 0.34 0.37 0.39 0.39 0.52 0.57 0.52 0.61 0.65 0.68 0.72 0.64 0.65 0.80 0.87 0.99 1.04 1.14 1.16 1.09 0.97 0.79 0.66 0.52 0.46 0.44 0.47 0.55 0.64 0.82 1.03 1.26 1.53 1.80
0.30 0.27 0.26 0.26 0.27 0.29 0.33 0.35 0.35 0.37 0.39 0.40 0.42 0.52 0.59 0.66 0.70 0.66 0.76 0.84 0.85 0.79 0.86 0.95 0.90 0.89 0.94 0.95 0.88 0.75 0.63 0.58 0.49 0.42 0.40 0.39 0.41 0.46 0.53 0.60 0.68 0.75 0.85
0.34 0.32 0.30 0.28 0.28 0.29 0.30 0.33 0.34 0.41 0.46 0.50 0.56 0.61 0.62 0.67 0.76 0.70 0.75 0.82 0.84 0.89 0.93 0.87 0.79 0.79 0.77 0.66 0.62 0.57 0.53 0.57 0.47 0.38 0.34 0.34 0.35 0.38 0.41 0.46 0.50 0.55 0.60
0.39 0.33 0.33 0.34 0.33 0.34 0.36 0.42 0.43 0.46 0.55 0.66 0.73 0.75 0.78 0.79 0.82 0.80 0.85 0.87 0.82 0.89 0.89 0.75 0.82 0.88 0.77 0.60 0.49 0.47 0.47 0.51 0.48 0.45 0.39 0.35 0.31 0.30 0.32 0.35 0.40 0.44 0.47
0.51 0.45 0.41 0.39 0.32 0.30 0.39 0.48 0.56 0.54 0.56 0.64 0.85 1.05 1.06 1.06 0.97 0.88 0.95 0.93 0.89 1.02 0.97 0.86 0.94 0.97 0.93 0.75 0.60 0.51 0.42 0.43 0.46 0.47 0.42 0.39 0.36 0.31 0.27 0.27 0.29 0.30 0.32
0.59 0.56 0.51 0.45 0.37 0.33 0.35 0.41 0.53 0.55 0.61 0.74 0.90 1.02 1.13 1.24 1.13 1.03 1.00 0.99 1.00 1.09 1.08 0.96 0.99 1.13 1.16 0.99 0.76 0.54 0.40 0.41 0.42 0.47 0.44 0.38 0.37 0.35 0.32 0.28 0.26 0.25 0.24
0.62 0.62 0.59 0.56 0.51 0.41 0.37 0.41 0.47 0.54 0.67 0.85 0.90 0.83 0.93 1.18 1.27 1.20 1.07 1.00 1.04 1.09 1.09 1.08 1.11 1.24 1.30 1.25 1.03 0.74 0.56 0.47 0.40 0.39 0.45 0.40 0.36 0.35 0.33 0.30 0.27 0.26 0.26
0.63 0.67 0.68 0.67 0.62 0.51 0.41 0.46 0.55 0.49 0.56 0.66 0.69 0.66 0.68 0.85 1.09 1.25 1.16 1.07 1.07 1.03 1.04 1.10 1.17 1.26 1.29 1.36 1.22 0.96 0.75 0.62 0.48 0.43 0.47 0.43 0.40 0.35 0.32 0.32 0.30 0.25 0.23
0.88 0.94 0.93 0.87 0.80 0.58 0.51 0.49 0.49 0.53 0.59 0.64 0.64 0.65 0.59 0.53 0.62 0.82 1.02 1.14 1.19 1.10 1.04 1.09 1.21 1.26 1.28 1.30 1.28 1.12 0.90 0.71 0.57 0.50 0.56 0.51 0.50 0.47 0.37 0.31 0.31 0.27 0.23
1.22 1.21 1.13 1.03 0.96 0.87 0.70 0.55 0.47 0.49 0.52 0.54 0.59 0.62 0.50 0.42 0.50 0.55 0.69 0.81 0.93 0.98 0.98 1.04 1.11 1.21 1.32 1.43 1.42 1.24 1.05 0.89 0.70 0.61 0.65 0.56 0.53 0.54 0.50 0.42 0.42 0.34 0.29
1.36 1.30 1.21 1.12 1.09 0.99 0.81 0.60 0.51 0.44 0.49 0.53 0.58 0.60 0.58 0.52 0.50 0.56 0.62 0.64 0.68 0.74 0.78 0.82 0.91 1.07 1.27 1.46 1.60 1.49 1.34 1.08 0.89 0.80 0.80 0.66 0.53 0.51 0.49 0.50 0.50 0.44 0.36
1.30 1.16 1.08 1.06 1.04 1.02 0.87 0.69 0.61 0.58 0.64 0.64 0.62 0.61 0.61 0.57 0.56 0.47 0.52 0.56 0.59 0.63 0.65 0.71 0.76 0.92 1.18 1.39 1.48 1.50 1.39 1.19 0.97 0.82 0.80 0.76 0.60 0.54 0.52 0.46 0.45 0.48 0.42
1.30 1.24 1.14 1.12 1.13 1.12 1.00 0.73 0.64 0.64 0.71 0.72 0.76 0.74 0.64 0.56 0.50 0.41 0.46 0.55 0.56 0.59 0.67 0.70 0.74 0.76 0.86 1.14 1.40 1.27 1.20 1.13 0.99 0.79 0.63 0.67 0.65 0.64 0.57 0.42 0.37 0.39 0.36